STARLINK-33560 (62282 NORAD) Tracking and Keplerian Element Data

This shows tracking and keplerian element data for the satellite.

Feedback or suggestion? Click here.




ElementValue
Catalog62282
NameSTARLINK-33560
Epoch Orbit1007
Epoch Day35.10886685
Epoch Year2025
RAAN310.8428
Inclination43.0051
Eccentricity0.0001402
Argument of Perigee324.051
Mean Anonmoly36.0252
Mean Motion15.4067409
Decay Rate-3.5E-07
L11 62282U 24237R 25035.10886685 -.00000035 00000+0 64376-5 0 9994
L22 62282 43.0051 310.8428 0001402 324.0510 36.0252 15.40674090 10075



Live tracking and technical data element details for STARLINK-33560 (NORAD 62282). STARLINK-33560 can be tracked NOW for your location showing map with azimuth and elevation plus other details from your city location.







IsCatalogInMostPopularTable: catalog: 62282, numindb: 10
Update: records affected: 1



GetName: 62282 STARLINK-33560

Hit Count: updated at: Mon, 19 May 2025 01:39:18 GMT